| time (UTC) | temp F | wind direction | speed MPH | gust MPH | rain 1hr in | rain 24hr in | rain mn in | humidity % | barometer mb |
| 20260901205017 | 90 | 315 | 1.0 | 2.0 | 0.00 | 0.00 | 0.00 | 58 | 1021.1 |
| 20260901204017 | 89 | 315 | 1.0 | 2.0 | 0.00 | 0.00 | 0.00 | 64 | 1021.1 |
| 20260901203017 | 91 | 338 | 1.0 | 3.0 | 0.00 | 0.00 | 0.00 | 55 | 1021.2 |
| 20260901202017 | 92 | 315 | 2.0 | 3.0 | 0.00 | 0.00 | 0.00 | 54 | 1021.3 |
| 20260901201017 | 92 | 293 | 2.0 | 4.0 | 0.00 | 0.00 | 0.00 | 55 | 1021.3 |
| 20260901200017 | 92 | 0 | 3.0 | 5.0 | 0.00 | 0.00 | 0.00 | 54 | 1021.2 |
| 20260901195017 | 92 | 315 | 2.0 | 5.0 | 0.00 | 0.00 | 0.00 | 55 | 1021.3 |
| 20260901194017 | 92 | 0 | 2.0 | 4.0 | 0.00 | 0.00 | 0.00 | 52 | 1021.4 |
| 20260901193017 | 92 | 315 | 1.0 | 4.0 | 0.00 | 0.00 | 0.00 | 54 | 1021.5 |
| 20260901192017 | 91 | 225 | 3.0 | 6.0 | 0.00 | 0.00 | 0.00 | 55 | 1021.7 |
| 20260901191017 | 91 | 293 | 3.0 | 5.0 | 0.00 | 0.00 | 0.00 | 55 | 1021.7 |
| 20260901190017 | 91 | 338 | 3.0 | 6.0 | 0.00 | 0.00 | 0.00 | 55 | 1021.9 |
| 20260901185023 | 91 | 293 | 1.0 | 8.0 | 0.00 | 0.00 | 0.00 | 55 | 1021.9 |
| 20260901184017 | 90 | 0 | 2.0 | 6.0 | 0.00 | 0.00 | 0.00 | 55 | 1022.0 |
| 20260901183017 | 91 | 338 | 2.0 | 8.0 | 0.00 | 0.00 | 0.00 | 56 | 1021.9 |
| 20260901182017 | 91 | 248 | 1.0 | 2.0 | 0.00 | 0.00 | 0.00 | 58 | 1022.1 |
| 20260901180037 | 89 | 0 | 2.0 | 5.0 | 0.00 | 0.00 | 0.00 | 63 | 1022.3 |
| 20260901175057 | 89 | 0 | 1.0 | 2.0 | 0.00 | 0.00 | 0.00 | 62 | 1022.4 |
| 20260901174018 | 88 | 315 | 3.0 | 5.0 | 0.00 | 0.00 | 0.00 | 61 | 1022.4 |
| 20260901173137 | 89 | 338 | 3.0 | 5.0 | 0.00 | 0.00 | 0.00 | 61 | 1022.6 |
| 20260901172017 | 88 | 225 | 1.0 | 3.0 | 0.00 | 0.00 | 0.00 | 65 | 1022.8 |
| 20260901171017 | 88 | 45 | 2.0 | 7.0 | 0.00 | 0.00 | 0.00 | 63 | 1022.9 |
| 20260901170017 | 88 | 225 | 1.0 | 4.0 | 0.00 | 0.00 | 0.00 | 68 | 1022.9 |
| 20260901165016 | 87 | 270 | 3.0 | 7.0 | 0.00 | 0.00 | 0.00 | 64 | 1022.9 |
| 20260901164017 | 87 | 0 | 3.0 | 6.0 | 0.00 | 0.00 | 0.00 | 63 | 1023.1 |
| 20260901163037 | 87 | 315 | 2.0 | 5.0 | 0.00 | 0.00 | 0.00 | 63 | 1023.2 |
| 20260901162036 | 87 | 203 | 2.0 | 6.0 | 0.00 | 0.00 | 0.00 | 66 | 1023.2 |
| 20260901161017 | 87 | 293 | 2.0 | 4.0 | 0.00 | 0.00 | 0.00 | 64 | 1023.3 |
| 20260901160016 | 87 | 315 | 3.0 | 8.0 | 0.00 | 0.00 | 0.00 | 64 | 1023.3 |
| 20260901155016 | 86 | 113 | 1.0 | 2.0 | 0.00 | 0.00 | 0.00 | 71 | 1023.5 |
| 20260901154017 | 86 | 225 | 2.0 | 4.0 | 0.00 | 0.00 | 0.00 | 70 | 1023.3 |
| 20260901153036 | 85 | 225 | 1.0 | 3.0 | 0.00 | 0.00 | 0.00 | 69 | 1023.3 |
| 20260901152017 | 85 | 203 | 2.0 | 3.0 | 0.00 | 0.00 | 0.00 | 68 | 1023.4 |
| 20260901151016 | 85 | 270 | 2.0 | 4.0 | 0.00 | 0.00 | 0.00 | 69 | 1023.4 |
| 20260901150017 | 84 | 338 | 1.0 | 3.0 | 0.00 | 0.00 | 0.00 | 73 | 1023.3 |
| 20260901145036 | 84 | 270 | 1.0 | 3.0 | 0.00 | 0.00 | 0.00 | 70 | 1023.3 |
| 20260901144016 | 83 | 135 | 2.0 | 3.0 | 0.00 | 0.00 | 0.00 | 72 | 1023.4 |
| 20260901143057 | 83 | 180 | 1.0 | 4.0 | 0.00 | 0.00 | 0.00 | 73 | 1023.5 |
| 20260901142036 | 82 | 203 | 1.0 | 2.0 | 0.00 | 0.00 | 0.00 | 73 | 1023.4 |
| 20260901141016 | 82 | 293 | 1.0 | 2.0 | 0.00 | 0.00 | 0.00 | 77 | 1023.3 |
| 20260901140016 | 81 | 338 | 1.0 | 2.0 | 0.00 | 0.00 | 0.00 | 78 | 1023.3 |
| 20260901135016 | 81 | 0 | 1.0 | 2.0 | 0.00 | 0.00 | 0.00 | 81 | 1023.4 |
| 20260901134016 | 80 | 0.0 | 2.0 | 0.00 | 0.00 | 0.00 | 81 | 1023.2 | |
| 20260901133016 | 78 | 0.0 | 2.0 | 0.00 | 0.00 | 0.00 | 85 | 1023.2 | |
| 20260901132016 | 77 | 0.0 | 2.0 | 0.00 | 0.00 | 0.00 | 88 | 1023.2 | |
| 20260901131016 | 76 | 0.0 | 2.0 | 0.00 | 0.00 | 0.00 | 90 | 1023.0 | |
| 20260901130042 | 74 | 113 | 1.0 | 2.0 | 0.00 | 0.00 | 0.00 | 92 | 1023.2 |
| 20260901125016 | 73 | 0.0 | 2.0 | 0.00 | 0.00 | 0.00 | 95 | 1023.2 | |
| 20260901124036 | 71 | 0.0 | 2.0 | 0.00 | 0.00 | 0.00 | 95 | 1023.2 | |
| 20260901123036 | 71 | 0.0 | 0.0 | 0.00 | 0.00 | 0.00 | 95 | 1023.1 | |
| 20260901122036 | 70 | 0.0 | 2.0 | 0.00 | 0.00 | 0.00 | 95 | 1023.0 | |
| 20260901121016 | 70 | 0.0 | 2.0 | 0.00 | 0.00 | 0.00 | 96 | 1022.9 | |
| 20260901120016 | 69 | 0.0 | 2.0 | 0.00 | 0.00 | 0.00 | 96 | 1022.8 | |
| 20260901115016 | 68 | 0.0 | 0.0 | 0.00 | 0.00 | 0.00 | 95 | 1022.6 | |
| 20260901114036 | 68 | 0.0 | 2.0 | 0.00 | 0.00 | 0.00 | 95 | 1022.5 | |
| 20260901113036 | 68 | 0.0 | 1.0 | 0.00 | 0.00 | 0.00 | 96 | 1022.5 | |
| 20260901112036 | 68 | 0.0 | 2.0 | 0.00 | 0.00 | 0.00 | 96 | 1022.3 | |
| 20260901111016 | 67 | 0.0 | 2.0 | 0.00 | 0.00 | 0.00 | 95 | 1022.1 | |
| 20260901110016 | 68 | 0.0 | 2.0 | 0.00 | 0.00 | 0.00 | 95 | 1022.3 | |
| 20260901105016 | 68 | 0.0 | 0.0 | 0.00 | 0.00 | 0.00 | 95 | 1022.1 | |
| 20260901104016 | 68 | 0.0 | 2.0 | 0.00 | 0.00 | 0.00 | 95 | 1021.8 | |
| 20260901103016 | 68 | 0.0 | 2.0 | 0.00 | 0.00 | 0.00 | 95 | 1021.9 | |
| 20260901102016 | 68 | 0.0 | 1.0 | 0.00 | 0.00 | 0.00 | 95 | 1021.7 | |
| 20260901101016 | 68 | 0.0 | 0.0 | 0.00 | 0.00 | 0.00 | 95 | 1021.6 | |
| 20260901100016 | 68 | 0.0 | 2.0 | 0.00 | 0.00 | 0.00 | 95 | 1021.5 | |
| 20260901095016 | 68 | 0.0 | 2.0 | 0.00 | 0.00 | 0.00 | 95 | 1021.5 | |
| 20260901094016 | 68 | 0 | 1.0 | 2.0 | 0.00 | 0.00 | 0.00 | 95 | 1021.4 |
| 20260901093019 | 68 | 0.0 | 0.0 | 0.00 | 0.00 | 0.00 | 95 | 1021.4 | |
| 20260901092016 | 68 | 0.0 | 1.0 | 0.00 | 0.00 | 0.00 | 95 | 1021.3 | |
| 20260901091016 | 69 | 0.0 | 2.0 | 0.00 | 0.00 | 0.00 | 95 | 1021.3 | |
| 20260901090016 | 69 | 0.0 | 2.0 | 0.00 | 0.00 | 0.00 | 95 | 1021.2 | |
| 20260901085016 | 69 | 0.0 | 0.0 | 0.00 | 0.00 | 0.00 | 95 | 1021.4 | |
| 20260901084016 | 69 | 0 | 1.0 | 1.0 | 0.00 | 0.00 | 0.00 | 95 | 1021.4 |
| 20260901083016 | 69 | 0.0 | 1.0 | 0.00 | 0.00 | 0.00 | 94 | 1021.4 | |
| 20260901082015 | 69 | 0.0 | 2.0 | 0.00 | 0.00 | 0.00 | 94 | 1021.4 | |
| 20260901081016 | 69 | 0.0 | 2.0 | 0.00 | 0.00 | 0.00 | 94 | 1021.7 | |
| 20260901080015 | 69 | 0.0 | 2.0 | 0.00 | 0.00 | 0.00 | 94 | 1021.7 | |
| 20260901075015 | 70 | 0.0 | 2.0 | 0.00 | 0.00 | 0.00 | 95 | 1021.6 | |
| 20260901074015 | 69 | 0.0 | 2.0 | 0.00 | 0.00 | 0.00 | 94 | 1021.5 | |
| 20260901073055 | 69 | 0.0 | 2.0 | 0.00 | 0.00 | 0.00 | 94 | 1021.5 | |
| 20260901072035 | 69 | 0.0 | 2.0 | 0.00 | 0.00 | 0.00 | 94 | 1021.6 | |
| 20260901071016 | 69 | 0.0 | 0.0 | 0.00 | 0.00 | 0.00 | 94 | 1021.7 | |
| 20260901070017 | 69 | 45 | 1.0 | 2.0 | 0.00 | 0.00 | 0.00 | 94 | 1021.9 |
| 20260901065035 | 69 | 0.0 | 2.0 | 0.00 | 0.00 | 0.00 | 94 | 1021.9 | |
| 20260901064017 | 69 | 45 | 1.0 | 1.0 | 0.00 | 0.00 | 0.00 | 94 | 1022.0 |
| 20260901063017 | 69 | 0.0 | 2.0 | 0.00 | 0.00 | 0.00 | 94 | 1021.9 | |
| 20260901062017 | 69 | 0.0 | 1.0 | 0.00 | 0.00 | 0.00 | 93 | 1022.0 | |
| 20260901061037 | 69 | 0.0 | 0.0 | 0.00 | 0.00 | 0.00 | 93 | 1022.2 | |
| 20260901060021 | 69 | 0.0 | 1.0 | 0.00 | 0.00 | 0.00 | 93 | 1022.1 | |
| 20260901055017 | 69 | 0.0 | 0.0 | 0.00 | 0.00 | 0.00 | 93 | 1022.1 | |
| 20260901054017 | 69 | 0.0 | 0.0 | 0.00 | 0.00 | 0.00 | 92 | 1022.1 | |
| 20260901053017 | 70 | 0.0 | 2.0 | 0.00 | 0.00 | 0.00 | 92 | 1022.2 | |
| 20260901052017 | 70 | 0.0 | 2.0 | 0.00 | 0.00 | 0.00 | 92 | 1022.3 | |
| 20260901051057 | 70 | 0.0 | 0.0 | 0.00 | 0.00 | 0.00 | 92 | 1022.1 | |
| 20260901050017 | 70 | 0.0 | 0.0 | 0.00 | 0.00 | 0.00 | 91 | 1022.1 | |
| 20260901045017 | 70 | 0.0 | 2.0 | 0.00 | 0.00 | 0.00 | 91 | 1022.0 | |
| 20260901044017 | 70 | 0.0 | 1.0 | 0.00 | 0.00 | 0.00 | 91 | 1021.8 | |
| 20260901043017 | 70 | 45 | 1.0 | 1.0 | 0.00 | 0.00 | 0.00 | 91 | 1021.9 |
| 20260901042037 | 70 | 0.0 | 1.0 | 0.00 | 0.00 | 0.00 | 90 | 1021.9 | |
| 20260901041017 | 70 | 45 | 1.0 | 2.0 | 0.00 | 0.00 | 0.00 | 91 | 1021.8 |
| 20260901040037 | 70 | 0.0 | 2.0 | 0.00 | 0.00 | 0.00 | 91 | 1021.7 | |
| 20260901035016 | 70 | 0.0 | 0.0 | 0.00 | 0.00 | 0.00 | 91 | 1021.5 | |
| 20260901034016 | 70 | 0.0 | 0.0 | 0.00 | 0.00 | 0.00 | 91 | 1021.7 | |
| 20260901033016 | 70 | 0.0 | 1.0 | 0.00 | 0.00 | 0.00 | 91 | 1021.7 | |
| 20260901032036 | 70 | 0.0 | 1.0 | 0.00 | 0.00 | 0.00 | 90 | 1021.6 | |
| 20260901031056 | 71 | 0.0 | 0.0 | 0.00 | 0.00 | 0.00 | 91 | 1021.8 | |
| 20260901030016 | 71 | 0.0 | 1.0 | 0.00 | 0.00 | 0.00 | 91 | 1021.6 | |
| 20260901025018 | 71 | 0.0 | 1.0 | 0.00 | 0.00 | 0.00 | 91 | 1021.7 | |
| 20260901024016 | 71 | 0.0 | 0.0 | 0.00 | 0.00 | 0.00 | 91 | 1021.6 | |
| 20260901023016 | 71 | 0.0 | 2.0 | 0.00 | 0.00 | 0.00 | 91 | 1021.5 | |
| 20260901022016 | 72 | 0.0 | 0.0 | 0.00 | 0.00 | 0.00 | 91 | 1021.7 | |
| 20260901021016 | 72 | 0.0 | 0.0 | 0.00 | 0.00 | 0.00 | 90 | 1021.5 | |
| 20260901020036 | 72 | 0.0 | 0.0 | 0.00 | 0.00 | 0.00 | 90 | 1021.5 | |
| 20260901015036 | 73 | 0.0 | 2.0 | 0.00 | 0.00 | 0.00 | 89 | 1021.5 | |
| 20260901014016 | 73 | 0.0 | 2.0 | 0.00 | 0.00 | 0.00 | 89 | 1021.3 | |
| 20260901013015 | 73 | 0.0 | 1.0 | 0.00 | 0.00 | 0.00 | 89 | 1021.1 | |
| 20260901012016 | 74 | 0.0 | 0.0 | 0.00 | 0.00 | 0.00 | 88 | 1021.2 | |
| 20260901011015 | 74 | 0.0 | 0.0 | 0.00 | 0.00 | 0.00 | 87 | 1021.0 | |
| 20260901010036 | 75 | 0.0 | 2.0 | 0.00 | 0.00 | 0.00 | 86 | 1020.8 | |
| 20260901005015 | 75 | 0.0 | 0.0 | 0.00 | 0.00 | 0.00 | 85 | 1020.8 | |
| 20260901004016 | 76 | 0.0 | 2.0 | 0.00 | 0.00 | 0.00 | 85 | 1020.8 | |
| 20260901003015 | 76 | 0.0 | 1.0 | 0.00 | 0.00 | 0.00 | 84 | 1020.8 | |
| 20260901002015 | 77 | 0.0 | 0.0 | 0.00 | 0.00 | 0.00 | 80 | 1020.6 | |
| 20260901001015 | 77 | 0.0 | 0.0 | 0.00 | 0.00 | 0.00 | 79 | 1020.7 | |
| 20260901000036 | 78 | 0.0 | 2.0 | 0.00 | 0.00 | 0.00 | 78 | 1020.5 | |
| 20260831235016 | 79 | 338 | 1.0 | 1.0 | 0.00 | 0.00 | 0.00 | 75 | 1020.5 |
| 20260831234015 | 80 | 0.0 | 1.0 | 0.00 | 0.00 | 0.00 | 74 | 1020.5 | |
| 20260831233015 | 81 | 0.0 | 2.0 | 0.00 | 0.00 | 0.00 | 75 | 1020.4 | |
| 20260831232018 | 82 | 315 | 1.0 | 1.0 | 0.00 | 0.00 | 0.00 | 73 | 1020.8 |
| 20260831231015 | 82 | 315 | 1.0 | 1.0 | 0.00 | 0.00 | 0.00 | 70 | 1020.9 |
| 20260831230037 | 83 | 315 | 1.0 | 1.0 | 0.00 | 0.00 | 0.00 | 69 | 1020.8 |
| 20260831225015 | 85 | 315 | 1.0 | 1.0 | 0.00 | 0.00 | 0.00 | 67 | 1021.0 |
| 20260831224017 | 87 | 338 | 1.0 | 1.0 | 0.00 | 0.00 | 0.00 | 64 | 1021.0 |
| 20260831223017 | 88 | 315 | 1.0 | 1.0 | 0.00 | 0.00 | 0.00 | 64 | 1021.4 |
| 20260831222017 | 88 | 0 | 1.0 | 2.0 | 0.00 | 0.00 | 0.00 | 61 | 1021.4 |
| 20260831221017 | 88 | 23 | 1.0 | 1.0 | 0.00 | 0.00 | 0.00 | 59 | 1021.3 |
| 20260831220037 | 88 | 0 | 1.0 | 2.0 | 0.00 | 0.00 | 0.00 | 61 | 1021.3 |
| 20260831215037 | 88 | 0 | 2.0 | 4.0 | 0.00 | 0.00 | 0.00 | 60 | 1021.3 |
| 20260831214017 | 88 | 0 | 2.0 | 3.0 | 0.00 | 0.00 | 0.00 | 59 | 1021.5 |
| 20260831213017 | 89 | 338 | 2.0 | 4.0 | 0.00 | 0.00 | 0.00 | 59 | 1021.4 |
| 20260831212017 | 89 | 338 | 3.0 | 7.0 | 0.00 | 0.00 | 0.00 | 58 | 1021.4 |
| 20260831211017 | 89 | 315 | 1.0 | 4.0 | 0.00 | 0.00 | 0.00 | 56 | 1021.4 |
| 20260831210037 | 89 | 0 | 2.0 | 3.0 | 0.00 | 0.00 | 0.00 | 58 | 1021.5 |